Погода в Келлоге

Погода в Келлоге : погода сейчас, прогноз погоды и архив. Всё, что Вы хотите узнать о погоде в Келлоге!

Поиск расширенной информации на нашем сайте:

Другие новости

Новости СМИ2

Главная страница сайта

Новости сайта

03.07.2017

Напоминаем, что на нашем специализированном сайте Метеоцентр.Азия вы можете получить высокодетализированные автоматические прогнозы погоды по пунктам России, СНГ и мира в авиационном формате (включающие направление и скорость ветра, видимость, явления погоды, количество и форму облачности, нижнюю и верхнюю границу облачности).

Рекомендуем: Силиконовая фасадная краска.

Погода в Келлоге - сегодня

Время (UTC), дата Ветер
(°,м/с) 
Видим.   Явления Облачность Т
(°С)
Тd
(°С)
f(%) Тe
(°С)
Pmin
(гПа)
dP
(гПа)
Po
(мм)
O2
(г/м3)
Тmin Tmax R s Состояние
почвы
03 23.07.17 340 (С) н/о    н/о 
+22.3 +10.7 48 +24  1016.6  -0.3  757  280           
06 23.07.17 070 (В) н/о    н/о 
+27.5 +4 22 +28  1015.4  -1  756  276           
09 23.07.17 130 (ЮВ) н/о    н/о 
+29.1 +3.7 20 +29  1014.3  -1.1  756  275           
12 23.07.17 070 (В) н/о    н/о 
+28.3 +3.1 20 +28  1013.3  -1  755  275    +29.1       
15 23.07.17 тихо ()   н/о    н/о 
+19.9 +9.5 51 +20  1013.6  -0.1  755  282           
18 23.07.17 тихо ()   н/о    н/о 
+12.3 +10.1 86 +13  1013.9  0.1  755  289           
21 23.07.17 тихо ()   н/о    н/о 
+8.4 +6.6 88 +8  1013.6  -0.4  755  294           
00 24.07.17 010 (С) н/о    н/о 
+13 +9.5 79 +14  1013.3  -0.2  755  289  +7.8         
03 24.07.17 320 (СЗ) н/о    н/о 
+22.7 +11.8 50 +26  1012.3  -0.7  754  278           
06 24.07.17 110 (В) н/о    н/о 
+29.2 +4.9 21 +29  1010.6  -1.6  753  273           
09 24.07.17 100 (В) н/о    н/о 
+30.6 +5.1 20 +31  1008.9  -1.7  752  272           
12 24.07.17 150 (ЮВ) н/о    н/о 
+29.1 +5.5 22 +29  1008.2  -0.7  751  273    +31       
15 24.07.17 тихо ()   н/о    н/о 
+20 +12.4 62 +24  1007.9  -0.5  751  279           
18 24.07.17 тихо ()   н/о    н/о 
+13.5 +11.6 88 +17  1008.1  0.1  751  286           
21 24.07.17 240 (ЮЗ) н/о    н/о 
+10.1 +8.4 89 +11  1007.5  -0.7  750  290           
00 25.07.17 тихо ()   н/о    н/о 
+14.7 +11.7 82 +18  1007  -0.4  750  284  +9.1         
03 25.07.17 тихо ()   н/о    н/о 
+23 +11.5 48 +26  1006.2  -0.5  749  276           
06 25.07.17 тихо ()   н/о    н/о 
+25.9 +11.3 40 +29  1005.5  -0.7  749  274           
09 25.07.17 120 (ЮВ) н/о    н/о 
+28.1 +10 32 +29  1003.9  -1.5  748  271           
12 25.07.17 тихо ()   н/о    н/о 
+21 +15.4 70 +30  1004.1  0.1  748  277    +29.5       
15 25.07.17 320 (СЗ) н/о    н/о 
+19.4 +15 76 +30  1003.3  -0.8  747  278           
18 25.07.17 040 (СВ) н/о    н/о 
+16.1 +15.1 94 +26  1004.1  0.7  748  281           
21 25.07.17 тихо ()   н/о    н/о 
+15.7 +14.9 95 +24  1002.6  -1.5  747  281           
00 26.07.17 040 (СВ) н/о    н/о 
+16.1 +15.3 95 +26  1002.5  747  281  +15.7         
03 26.07.17 010 (С) н/о    н/о 
+17.8 +16 89 +30  1001.9  -0.5  746  279           
Время (UTC), дата Ветер
(°,м/с) 
Видим.   Явления Облачность Т
(°С)
Тd
(°С)
f(%) Тe
(°С)
Pmin
(гПа)
dP
(гПа)
Po
(мм)
O2
(г/м3)
Тmin Tmax R s Состояние
почвы

Для получения пояснительной информации подведите курсор к названию столбца.

ПОГОДА в Келлоге - архив

Всё, что Вы хотите узнать о погоде в Келлоге - удобно и подробно!

Выберите нужную дату (начиная с 1 января 2015* года) и нажмите кнопку "Найти".
Будут отображены архивные сводки погоды по пункту Келлог, начиная с указанной даты.


Отображать данные в формате CSV (для использования в таблицах Excel)


Внимание! Наш архив погоды предназначен исключительно для личного некоммерческого использования в познавательных целях. Если Вам необходимы официальные справки о состоянии погоды (для производственных, юридических, коммерческих и т.п. целей), обращайтесь в органы Росгидромета.

*Примечание: данная дата относится к архиву по метеостанциям СССР (Россия, СНГ, Балтия).
Архив по метеостанциям Зарубежной Европы и Азии (кроме Китая) хранится 10 дней, по другим регионам земного шара (Китай, Африка, Америка, Австралия, Океания) - 1 день.

Келлог - район местоположения метеостанции


Название, широта, долгота, высота метеостанции:
Келлог 62.4°ш. 86.6°д. 58 м над ур. моря [Российская Федерация]

Дополнительная информация

В oтличие oт бoльшинства пoгoдных сайтoв мы публикуем пoдрoбную метеoинфoрмацию в детальнoм прoфессиoнальнoм фoрмате.

Характеристики температуры и влажнoсти вoздуха измеряются на высoте 2 м в тени вдали oт зданий и деревьев.
Скoрoсть ветра измеряется на высoте 10 м (на урoвне рoста челoвека скoрoсть ветра ниже в 1.5-2 раза). Если метеoстанция нахoдится в гoрoде или в лесу, тo скoрoсть ветра занижена на 2-4 м/с пo сравнению с oткрытым местoм. Скoрoсть ветра над акватoриями крупных рек и oзёр, а также на вершинах хoлмoв на 2-5 м/с выше, чем в oбычных услoвиях.
Атмoсфернoе давление в разных тoчках местнoсти мoжет значительнo oтличаться oт давления на метеoстанции, в зависимoсти oт услoвий рельефа (при пoдъёме на 10 м давление пoнижается примернo на 1 мм рт.ст.).